Minneapolis Flying Cloud, MN

1:59 PM CDT on August 21, 2017 (GMT -0500)
Flying Cloud

Weather History for KFCM - August, 2014

Change the Weather History Date:

Saturday, August 9, 2014

  Actual Average Record
Temperature  
Mean Temperature 72 °F -  
Max Temperature 80 °F 79 °F 95 °F (2010)
Min Temperature 66 °F 59 °F 57 °F (2004)
Cooling Degree Days 8    
Growing Degree Days 22 (Base 50)    
Moisture  
Dew Point 60 °F    
Average Humidity 65    
Maximum Humidity 84    
Minimum Humidity 46    
Precipitation  
Precipitation 0.00 in - - ()
Sea Level Pressure  
Sea Level Pressure 30.07 in    
Wind  
Wind Speed 5 mph (ESE)    
Max Wind Speed 10 mph    
Max Gust Speed -    
Visibility 10 miles    
Events Rain    
Averages and records for this station are not official NWS values.
T = Trace of Precipitation, MM = Missing Value Source: NWS Daily Summary

Daily Weather History Graph

Daily Weather History Graph

Search for Another Location

Airport or City:

Trip Planner

Search our weather history database for the weather conditions in past years. The results will help you decide how hot, cold, wet, or windy it might be!

Date:

Astronomy

Aug. 09, 2014 Rise Set
Actual Time 6:08 AM CDT 8:28 PM CDT
Civil Twilight 5:36 AM CDT 9:01 PM CDT
Nautical Twilight 4:55 AM CDT 9:41 PM CDT
Astronomical Twilight 4:10 AM CDT 10:26 PM CDT
Moon 7:29 PM CDT (8/9) 4:50 AM CDT (8/9)
Length of Visible Light 15h 25m
Length of Day
14h 20m
Waxing Gibbous, 98% of the Moon is Illuminated
Aug 9
Waxing Gibbous
Aug 10
Full
Aug 17
Last Quarter
Aug 25
New
Sep 2
First Quarter

Hourly Weather History & Observations

Time (CDT) Temp. Dew Point Humidity Pressure Visibility Wind Dir Wind Speed Gust Speed Precip Events Conditions
12:53 AM 68.0 °F 62.1 °F 81% 30.06 in 9.0 mi ENE 3.5 mph - N/A   Clear
1:53 AM 68.0 °F 62.1 °F 81% 30.04 in 9.0 mi ENE 3.5 mph - N/A   Clear
2:53 AM 68.0 °F 60.1 °F 76% 30.05 in 10.0 mi East 3.5 mph - N/A   Scattered Clouds
3:53 AM 66.9 °F 61.0 °F 81% 30.06 in 10.0 mi ENE 3.5 mph - N/A   Partly Cloudy
4:53 AM 69.1 °F 61.0 °F 75% 30.08 in 10.0 mi East 3.5 mph - N/A   Mostly Cloudy
5:53 AM 69.1 °F 61.0 °F 75% 30.07 in 10.0 mi ESE 5.8 mph - N/A   Mostly Cloudy
6:53 AM 66.9 °F 62.1 °F 84% 30.08 in 8.0 mi SSE 4.6 mph - N/A   Mostly Cloudy
7:53 AM 70.0 °F 60.1 °F 71% 30.09 in 10.0 mi SE 5.8 mph - N/A   Overcast
8:53 AM 72.0 °F 60.1 °F 66% 30.10 in 10.0 mi South 3.5 mph - N/A   Overcast
9:53 AM 75.0 °F 59.0 °F 57% 30.10 in 10.0 mi SSE 6.9 mph - N/A   Partly Cloudy
10:53 AM 77.0 °F 60.1 °F 56% 30.10 in 10.0 mi SE 6.9 mph - N/A   Partly Cloudy
12:53 PM 79.0 °F 57.9 °F 48% 30.09 in 10.0 mi ESE 9.2 mph - N/A   Mostly Cloudy
1:53 PM 77.0 °F 57.0 °F 50% 30.09 in 10.0 mi SE 10.4 mph - N/A   Mostly Cloudy
2:53 PM 77.0 °F 57.0 °F 50% 30.08 in 10.0 mi SE 8.1 mph - 0.00 in   Overcast
3:53 PM 75.9 °F 54.0 °F 46% 30.07 in 10.0 mi East 9.2 mph - 0.00 in Rain Light Rain
4:53 PM 77.0 °F 61.0 °F 58% 30.06 in 10.0 mi East 6.9 mph - 0.00 in   Partly Cloudy
5:53 PM 78.1 °F 62.1 °F 58% 30.05 in 10.0 mi ESE 6.9 mph - N/A   Scattered Clouds
6:53 PM 77.0 °F 61.0 °F 58% 30.04 in 10.0 mi ESE 6.9 mph - N/A   Clear
7:53 PM 77.0 °F 61.0 °F 58% 30.04 in 10.0 mi ESE 5.8 mph - N/A   Clear
8:53 PM 73.0 °F 62.1 °F 68% 30.05 in 10.0 mi East 3.5 mph - N/A   Clear
11:53 PM 71.1 °F 62.1 °F 73% 30.04 in 9.0 mi ESE 5.8 mph - N/A   Mostly Cloudy